Theta_e
279 279 279 279 278 278 279 279 280 279 280 280 280 281 280 280 280 281 282 282 283 285
278 278 278 277 278 277 278 280 278 278 278 278 279 279 279 278 278 278 279 280 282 282
278 278 278 278 278 278 278 278 278 278 278 277 278 277 277 277 278 277 277 278 278 279
278 278 278 278 278 278 278 278 278 278 277 277 277 277 276 276 276 276 276 277 277 278
279 278 278 277 278 278 277 278 277 277 277 277 276 276 276 275 275 275 275 276 276 276
278 278 277 277 277 277 277 276 276 276 276 275 276 275 276 276 275 275 275 276 276 276
278 277 277 277 276 276 275 274 274 273 273 273 274 274 275 276 275 275 276 277 277 277
278 277 276 274 274 273 273 272 272 272 271 272 272 273 274 274 274 274 274 275 276 276
275 274 273 272 272 271 271 270 270 270 269 269 270 273 275 275 273 272 272 271 272 273
271 271 270 270 269 269 268 268 268 268 268 267 268 272 274 274 272 271 271 270 271 271
270 268 268 267 267 267 267 266 266 266 266 266 267 271 272 273 271 270 270 270 270 270
268 265 266 263 264 264 264 264 263 265 264 263 263 269 271 271 270 269 269 269 270 270
267 262 262 264 262 263 261 264 264 264 263 263 262 267 270 271 269 267 268 269 270 272
265 262 261 260 261 259 258 262 259 260 261 261 262 263 269 272 270 269 269 269 270 271
Wind_Speed
7 6 5 5 4 4 4 4 6 6 6 6 6 6 6 4 4 6 5 7 5 4
6 7 6 5 5 4 4 4 5 5 6 6 6 6 6 4 5 5 4 5 4 5
6 6 6 5 6 5 5 5 5 6 5 5 5 5 5 4 5 5 4 4 5 5
5 6 5 5 5 5 4 5 6 6 6 6 6 5 5 5 6 8 7 6 6 9
5 4 5 5 5 6 6 5 6 6 6 6 7 6 7 9 8 7 10 10 8 9
3 4 4 5 5 4 4 4 4 4 5 7 8 9 9 9 10 10 10 10 10 11
2 2 3 4 4 4 4 5 7 6 7 8 9 10 9 11 12 12 12 13 12 12
3 3 4 3 2 3 4 5 6 8 7 8 9 8 13 13 14 14 15 14 14 13
4 4 3 1 2 3 4 5 5 6 7 8 8 18 20 18 14 15 15 15 14 14
4 4 2 2 3 4 4 5 6 6 7 9 9 19 22 23 13 14 14 14 14 14
4 3 2 2 2 3 3 5 6 7 8 8 9 21 22 23 14 12 13 13 14 15
3 3 3 3 3 3 4 5 6 7 6 8 10 20 22 20 12 12 13 13 14 14
4 4 1 2 3 1 3 7 7 8 8 10 11 19 21 19 9 11 10 12 14 20
3 2 0 1 1 2 4 6 5 9 8 9 11 13 20 22 12 10 11 10 9 10
Wind_Direction
70 76 73 71 66 54 49 34 13 16 21 18 18 10 9 4 2 4 1 350 342 320
81 79 80 72 68 58 43 27 18 23 21 14 12 14 2 354 345 341 330 318 316 303
88 79 81 76 58 43 31 22 16 12 14 4 357 352 354 348 331 329 318 310 299 288
91 75 65 58 43 31 17 12 10 5 0 355 349 339 331 318 311 320 312 309 303 302
106 85 63 46 33 22 16 12 3 359 353 343 337 333 329 321 316 305 306 303 296 295
86 61 45 34 24 21 4 346 345 354 349 343 336 329 321 308 305 300 296 296 292 292
150 80 49 35 25 11 359 357 358 357 347 341 333 324 317 320 315 308 301 299 293 292
149 99 76 57 15 3 10 6 352 344 342 337 331 329 327 319 310 307 303 303 302 299
124 122 129 138 18 13 5 359 348 342 332 329 325 321 319 318 311 308 304 303 303 300
146 142 107 53 24 7 350 341 339 334 330 319 313 317 317 316 307 302 301 303 304 303
162 111 98 63 19 348 351 343 330 321 309 309 311 315 316 313 309 302 297 297 298 297
128 88 39 10 355 350 339 325 301 305 312 305 301 308 311 314 305 297 293 292 289 283
113 114 54 350 343 300 306 302 311 306 302 289 290 299 308 313 299 295 292 284 281 279
113 114 157 271 247 279 291 299 291 289 288 280 278 284 303 307 305 294 288 286 286 279